When you browse on this site, cookies collect data to enhance your experience and personalize the content and advertising you see.
Visit our Privacy Policy to learn more. By continuing to use the site, you agree to this use of cookies and data.
  • In Hungary
  • List of Countries
  • For 7 days
  • Water Temperature
  • Satellite Maps
  • Weather Map
  • News
  • Weather Widgets
  • user-avatar
    Login

    Hourly Weather Sao Mateus do Sul

    Today, 17 January, Thursday

    Time Temperature Precipitation Wind Pressure Humidity
    00:00 +20°C° 0 mm 0 mps 696 mmHg 93%
    01:00 +20°C° 0 mm 0 mps 696 mmHg 94%
    02:00 +19°C° 0 mm 0 mps 696 mmHg 96%
    03:00 +19°C° 0 mm 0 mps 696 mmHg 97%
    04:00 +19°C° 0 mm 0 mps 696 mmHg 97%
    05:00 +19°C° 0 mm 0 mps 696 mmHg 98%
    06:00 +19°C° 0 mm 0 mps 696 mmHg 98%
    07:00 +22°C° 0 mm 0 mps 696 mmHg 86%
    08:00 +25°C° 0 mm 0 mps 697 mmHg 74%
    09:00 +27°C° 0 mm 0 mps 697 mmHg 62%
    10:00 +31°C° 0 mm 1 mps 698 mmHg 54%
    11:00 +34°C° 0 mm 1 mps 698 mmHg 46%
    12:00 +36°C° 0 mm 1 mps 698 mmHg 38%
    13:00 +34°C° 0 mm 1 mps 697 mmHg 44%
    14:00 +31°C° 0 mm 0 mps 697 mmHg 49%
    15:00 +30°C° 0 mm 0 mps 696 mmHg 55%
    16:00 +30°C° 0 mm 0 mps 696 mmHg 57%
    17:00 +31°C° 0 mm 1 mps 696 mmHg 59%
    18:00 +30°C° 0 mm 1 mps 696 mmHg 62%
    19:00 +28°C° 1.2 mm 1 mps 696 mmHg 73%
    20:00 +25°C° 1.2 mm 1 mps 695 mmHg 85%
    21:00 +23°C° 1.2 mm 1 mps 695 mmHg 97%
    22:00 +23°C° 0.1 mm 1 mps 696 mmHg 98%
    23:00 +23°C° 0.1 mm 1 mps 696 mmHg 98%

    Tomorrow, 18 January, Friday

    Time Temperature Precipitation Wind Pressure Humidity
    00:00 +22°C° 0.1 mm 1 mps 697 mmHg 99%
    01:00 +22°C° 0 mm 1 mps 696 mmHg 99%
    02:00 +22°C° 0 mm 1 mps 696 mmHg 99%
    03:00 +22°C° 0 mm 1 mps 696 mmHg 99%
    04:00 +22°C° 0 mm 1 mps 696 mmHg 99%
    05:00 +20°C° 0 mm 0 mps 696 mmHg 99%
    06:00 +20°C° 0 mm 0 mps 696 mmHg 99%
    07:00 +21°C° 0 mm 0 mps 696 mmHg 91%
    08:00 +23°C° 0 mm 0 mps 696 mmHg 83%
    09:00 +25°C° 0 mm 0 mps 697 mmHg 76%
    10:00 +30°C° 0 mm 1 mps 697 mmHg 65%
    11:00 +32°C° 0 mm 1 mps 697 mmHg 54%
    12:00 +34°C° 0 mm 1 mps 697 mmHg 44%
    13:00 +33°C° 0.3 mm 1 mps 696 mmHg 50%
    14:00 +32°C° 0.3 mm 1 mps 695 mmHg 56%
    15:00 +31°C° 0.3 mm 1 mps 694 mmHg 62%
    16:00 +30°C° 0.6 mm 1 mps 694 mmHg 68%
    17:00 +29°C° 0.6 mm 2 mps 694 mmHg 74%
    18:00 +27°C° 0.6 mm 2 mps 694 mmHg 79%
    19:00 +26°C° 1.3 mm 2 mps 694 mmHg 85%
    20:00 +24°C° 1.3 mm 2 mps 694 mmHg 92%
    21:00 +23°C° 1.3 mm 2 mps 695 mmHg 98%
    22:00 +23°C° 1.8 mm 1 mps 695 mmHg 98%
    23:00 +23°C° 1.8 mm 1 mps 695 mmHg 98%

    Day after tomorrow, 19 January, Saturday

    Time Temperature Precipitation Wind Pressure Humidity
    00:00 +23°C° 1.8 mm 1 mps 695 mmHg 98%
    01:00 +22°C° 0.6 mm 1 mps 694 mmHg 98%
    02:00 +22°C° 0.6 mm 1 mps 693 mmHg 98%
    03:00 +22°C° 0.6 mm 1 mps 693 mmHg 98%
    04:00 +20°C° 0.1 mm 0 mps 693 mmHg 98%
    05:00 +20°C° 0.1 mm 0 mps 693 mmHg 98%
    06:00 +20°C° 0.1 mm 0 mps 693 mmHg 98%
    07:00 +21°C° 0 mm 0 mps 693 mmHg 92%
    08:00 +23°C° 0 mm 0 mps 694 mmHg 87%
    09:00 +24°C° 0 mm 0 mps 695 mmHg 81%
    10:00 +29°C° 0 mm 1 mps 695 mmHg 70%
    11:00 +31°C° 0 mm 1 mps 695 mmHg 58%
    12:00 +33°C° 0 mm 1 mps 695 mmHg 47%
    13:00 +33°C° 0 mm 1 mps 695 mmHg 47%
    14:00 +33°C° 0 mm 1 mps 694 mmHg 48%
    15:00 +31°C° 0 mm 0 mps 694 mmHg 49%
    16:00 +30°C° 1.1 mm 1 mps 693 mmHg 63%
    17:00 +27°C° 1.1 mm 1 mps 693 mmHg 78%
    18:00 +25°C° 1.1 mm 1 mps 693 mmHg 92%
    19:00 +24°C° 1.5 mm 1 mps 693 mmHg 94%
    20:00 +23°C° 1.5 mm 1 mps 694 mmHg 96%
    21:00 +23°C° 1.5 mm 1 mps 694 mmHg 98%
    22:00 +23°C° 2 mm 1 mps 694 mmHg 98%
    23:00 +21°C° 2 mm 2 mps 695 mmHg 98%

    20 January, Sunday

    Time Temperature Precipitation Wind Pressure Humidity
    00:00 +21°C° 2 mm 2 mps 695 mmHg 99%
    01:00 +21°C° 1 mm 2 mps 695 mmHg 99%
    02:00 +21°C° 1 mm 2 mps 694 mmHg 99%
    03:00 +20°C° 1 mm 2 mps 694 mmHg 99%
    04:00 +20°C° 0.1 mm 2 mps 694 mmHg 99%
    05:00 +21°C° 0.1 mm 1 mps 694 mmHg 98%
    06:00 +21°C° 0.1 mm 1 mps 694 mmHg 98%
    07:00 +22°C° 0 mm 1 mps 695 mmHg 96%
    08:00 +22°C° 0 mm 1 mps 695 mmHg 93%
    09:00 +23°C° 0 mm 2 mps 696 mmHg 90%
    10:00 +25°C° 0.1 mm 2 mps 696 mmHg 81%
    11:00 +26°C° 0.1 mm 2 mps 696 mmHg 73%
    12:00 +28°C° 0.1 mm 2 mps 696 mmHg 64%
    13:00 +28°C° 1.1 mm 1 mps 696 mmHg 74%
    14:00 +27°C° 1.1 mm 1 mps 695 mmHg 83%
    15:00 +26°C° 1.1 mm 1 mps 694 mmHg 93%
    16:00 +26°C° 0.9 mm 1 mps 694 mmHg 94%
    17:00 +26°C° 0.9 mm 1 mps 694 mmHg 94%
    18:00 +25°C° 0.9 mm 1 mps 694 mmHg 95%
    19:00 +24°C° 1 mm 1 mps 695 mmHg 96%
    20:00 +23°C° 1 mm 1 mps 695 mmHg 97%
    21:00 +22°C° 1 mm 1 mps 695 mmHg 98%
    22:00 +22°C° 0.1 mm 1 mps 695 mmHg 99%
    23:00 +22°C° 0.1 mm 1 mps 695 mmHg 99%

    21 January, Monday

    Time Temperature Precipitation Wind Pressure Humidity
    00:00 +21°C° 0.1 mm 1 mps 695 mmHg 99%
    01:00 +21°C° 0 mm 1 mps 695 mmHg 99%
    02:00 +21°C° 0 mm 1 mps 695 mmHg 99%
    03:00 +21°C° 0 mm 1 mps 694 mmHg 99%
    04:00 +21°C° 0 mm 1 mps 694 mmHg 99%
    05:00 +21°C° 0 mm 1 mps 694 mmHg 99%
    06:00 +19°C° 0 mm 0 mps 695 mmHg 99%
    07:00 +23°C° 0 mm 1 mps 695 mmHg 94%
    08:00 +24°C° 0 mm 1 mps 696 mmHg 88%
    09:00 +26°C° 0 mm 1 mps 696 mmHg 83%
    10:00 +27°C° 0.5 mm 1 mps 696 mmHg 80%
    11:00 +28°C° 0.5 mm 1 mps 696 mmHg 77%
    12:00 +30°C° 0.5 mm 1 mps 696 mmHg 74%
    13:00 +29°C° 1.1 mm 1 mps 695 mmHg 76%
    14:00 +29°C° 1.1 mm 2 mps 695 mmHg 78%
    15:00 +29°C° 1.1 mm 2 mps 695 mmHg 79%
    16:00 +28°C° 1.4 mm 2 mps 694 mmHg 84%
    17:00 +27°C° 1.4 mm 1 mps 694 mmHg 89%
    18:00 +26°C° 1.4 mm 1 mps 694 mmHg 94%
    19:00 +25°C° 0.6 mm 1 mps 695 mmHg 96%
    20:00 +24°C° 0.6 mm 1 mps 695 mmHg 97%
    21:00 +23°C° 0.6 mm 1 mps 695 mmHg 98%
    22:00 +22°C° 0 mm 1 mps 695 mmHg 98%
    23:00 +22°C° 0 mm 1 mps 695 mmHg 99%

    22 January, Tuesday

    Time Temperature Precipitation Wind Pressure Humidity
    00:00 +22°C° 0 mm 1 mps 695 mmHg 99%
    01:00 +22°C° 0 mm 1 mps 695 mmHg 99%
    02:00 +21°C° 0 mm 1 mps 694 mmHg 99%
    03:00 +21°C° 0 mm 1 mps 694 mmHg 99%
    04:00 +21°C° 0 mm 1 mps 694 mmHg 99%
    05:00 +21°C° 0 mm 1 mps 694 mmHg 99%
    06:00 +19°C° 0 mm 0 mps 695 mmHg 99%
    07:00 +23°C° 0 mm 1 mps 695 mmHg 92%
    08:00 +25°C° 0 mm 1 mps 696 mmHg 85%
    09:00 +27°C° 0 mm 1 mps 696 mmHg 78%
    10:00 +29°C° 0 mm 1 mps 696 mmHg 66%
    11:00 +32°C° 0 mm 1 mps 696 mmHg 55%
    12:00 +34°C° 0 mm 1 mps 696 mmHg 43%
    13:00 +34°C° 0 mm 1 mps 696 mmHg 46%
    14:00 +33°C° 0 mm 1 mps 695 mmHg 49%
    15:00 +33°C° 0 mm 1 mps 695 mmHg 53%
    16:00 +31°C° 0.3 mm 1 mps 695 mmHg 60%
    17:00 +30°C° 0.3 mm 1 mps 695 mmHg 68%
    18:00 +28°C° 0.3 mm 1 mps 694 mmHg 76%
    19:00 +27°C° 1 mm 1 mps 695 mmHg 82%
    20:00 +25°C° 1 mm 1 mps 695 mmHg 88%
    21:00 +21°C° 1 mm 0 mps 695 mmHg 95%
    22:00 +21°C° 0.1 mm 0 mps 695 mmHg 96%
    23:00 +21°C° 0.1 mm 0 mps 695 mmHg 97%
    Show more